User: anonymous   Login
Location: Ay?beleni
(36.6500°N, 30.3000°E)
Time: 19:52:20
(UTC+00:00)
Language:

In-Cosmos 22 Rocket - Orbit

View from above orbital plane
View from above orbital plane
View from above satellite
View from above satellite

Ground track
Ground track

The orbit data is extracted from the following two-line orbital elements,

1 12646U 81075B   20185.48828833 -.00000059  00000-0 -36078-4 0  9994
2 12646  81.2262 256.3437 0068523  54.5913 316.9677 14.15897623  9221
Epoch (UTC): 03 July 2020 11:43:08
Eccentricity: 0.0068523
inclination: 81.2262°
perigee height: 790 km
apogee height: 889 km
right ascension of ascending node: 256.3437°
argument of perigee: 54.5913°
revolutions per day: 14.15897623
mean anomaly at epoch: 316.9677°
orbit number at epoch: 922

The dashed part of the orbit path shows where the satellite is in the earth's shadow,  

DLR